Overview Statistics Trail Chart Weather Telemetry Raw packets
 

This is the latest recevied weather packets stored in our database for station/object W5GMO. If no packets are shown the sender has not sent any weather packets the latest 10 day(s).

<< 10 11 12 13 14 15 16 >>
Time Temp. Humidity Pressure Rain* Wind** Luminosity Snow
1788566908 26.67° C 1% 1011.7 hPa 0 mm - 0 W/m² -
1788566603 26.67° C 1% 1011.9 hPa 0 mm - 0 W/m² -
1788566298 26.67° C 1% 1011.7 hPa 0 mm - 0 W/m² -
1788565994 26.67° C 1% 1011.8 hPa 0 mm - 0 W/m² -
1788565688 26.67° C 1% 1011.9 hPa 0 mm - 0 W/m² -
1788565378 27.22° C 1% 1012 hPa 0 mm - 0 W/m² -
1788565073 27.22° C 1% 1012 hPa 0 mm - 1 W/m² -
1788564769 27.22° C 1% 1012.1 hPa 0 mm - 2 W/m² -
1788564466 27.22° C 1% 1011.8 hPa 0 mm - 3 W/m² -
1788564162 27.22° C 1% 1012.1 hPa 0 mm - 6 W/m² -
1788563883 27.22° C 1% 1011.8 hPa 0 mm - 9 W/m² -
1788563552 27.22° C 1% 1011.9 hPa 0 mm - 11 W/m² -
1788563246 27.22° C 1% 1011.9 hPa 0 mm - 12 W/m² -
1788562941 27.22° C 1% 1011.8 hPa 0 mm - 15 W/m² -
1788562640 27.78° C 1% 1011.9 hPa 0 mm - 20 W/m² -
1788562334 27.78° C 1% 1011.9 hPa 0 mm - 25 W/m² -
1788562033 27.78° C 1% 1011.8 hPa 0 mm - 32 W/m² -
1788561729 27.78° C 1% 1011.7 hPa 0 mm - 37 W/m² -
1788561428 27.78° C 1% 1012 hPa 0 mm - 42 W/m² -
1788561123 27.78° C 1% 1012.1 hPa 0 mm - 48 W/m² -
1788560818 27.78° C 1% 1012.1 hPa 0 mm - 53 W/m² -
1788560514 27.78° C 1% 1011.9 hPa 0 mm - 57 W/m² -
1788560213 27.78° C 1% 1011.9 hPa 0 mm - 60 W/m² -
1788559909 27.78° C 1% 1012.3 hPa 0 mm - 61 W/m² -
1788559603 27.78° C 1% 1012 hPa 0 mm - 60 W/m² -

* Rain latest hour (hover to see other rain measurements)
** Current wind speed in m/s (hover to see current wind gust speed)